Regional Weather Roundup
Issued by NWS Little Rock, AR

Home | Current Version | Previous Version | Graphics & Text | Print | Product List | Glossary On
Versions: 1 2 3 4 5 6 7 8 9 10 11 12 13 14 15 16 17 18 19 20 21 22 23 24 25 26 27 28 29 30 31 32 33 34
000
ASUS44 KLZK 031805
RWRLZK

WEATHER ROUNDUP FOR ARKANSAS
NATIONAL WEATHER SERVICE LITTLE ROCK AR
1200 PM CST SAT DEC 03 2016

NOTE: "FAIR" INDICATES FEW OR NO CLOUDS BELOW 12,000 FEET WITH NO
SIGNIFICANT WEATHER AND/OR OBSTRUCTIONS TO VISIBILITY.

ARZ001-003-010-029-031900-
NORTHWEST ARKANSAS

CITY           SKY/WX    TMP DP  RH WIND       PRES   REMARKS
FAYETTEVILLE   LGT RAIN  46  38  73 SE10      30.21F
6HR MIN TEMP:  43; 6HR MAX TEMP:  50; 6HR PCP: TRACE;

FORT SMITH     LGT RAIN  47  43  86 E14       30.20F
6HR MIN TEMP:  47; 6HR MAX TEMP:  49; 6HR PCP:  0.04;

HARRISON       LGT RAIN  44  34  67 SE8       30.25F
6HR MIN TEMP:  41; 6HR MAX TEMP:  44; 6HR PCP: TRACE;

BENTONVILLE    CLOUDY    50  32  50 SE9       30.22F
6HR MIN TEMP:  46; 6HR MAX TEMP:  50;

ROGERS         CLOUDY    48  35  60 SE7       30.22F
6HR MIN TEMP:  45; 6HR MAX TEMP:  49;

SILOAM SPGS    CLOUDY    48  36  61 S10       30.20F
6HR MIN TEMP:  45; 6HR MAX TEMP:  52;

HIGHFILL       CLOUDY    50  35  56 SE16      30.20F
6HR MIN TEMP:  46; 6HR MAX TEMP:  50;

SPRINGDALE     CLOUDY    48  36  61 SE10G17   30.23F
$$

ARZ004-005-016-031900-
NORTH CENTRAL ARKANSAS

CITY           SKY/WX    TMP DP  RH WIND       PRES   REMARKS
BATESVILLE     CLOUDY    45  37  76 E8        30.32F
6HR MIN TEMP:  43; 6HR MAX TEMP:  45;

FLIPPIN        CLOUDY    45  30  57 E3        30.25F
6HR MIN TEMP:  43; 6HR MAX TEMP:  45;

MTN HOME       CLOUDY    44  32  62 SE6       30.27F
6HR MIN TEMP:  41; 6HR MAX TEMP:  44;

$$

ARZ040-041-031900-
WEST CENTRAL ARKANSAS

CITY           SKY/WX    TMP DP  RH WIND       PRES   REMARKS
MENA           CLOUDY    46  45  93 E10       30.17F
MOUNT IDA      LGT RAIN  46  43  89 VRB5      30.17F FOG
6HR MIN TEMP:  45; 6HR MAX TEMP:  48; 6HR PCP:  0.20;

$$

ARZ009-017-025-026-028-031900-
NORTHEAST ARKANSAS

CITY           SKY/WX    TMP DP  RH WIND       PRES   REMARKS
CORNING        FAIR      45  37  76 NE7       30.33F
JONESBORO      CLOUDY    45  36  70 E8        30.32F
6HR MIN TEMP:  43; 6HR MAX TEMP:  45;

NEWPORT        LGT RAIN  45  39  79 MISG        N/A
6HR MIN TEMP:  43; 6HR MAX TEMP:  45;

WALNUT RIDGE   CLOUDY    45  34  65 NE9       30.31F
6HR MIN TEMP:  41; 6HR MAX TEMP:  45;

BLYTHEVILLE    CLOUDY    47  35  63 E7        30.32F
6HR MIN TEMP:  43; 6HR MAX TEMP:  47;

$$

ARZ022-023-033-042-044-031900-
CENTRAL ARKANSAS

CITY           SKY/WX    TMP DP  RH WIND       PRES   REMARKS
LITTLE ROCK    LGT RAIN  45  44  97 E7        30.26F
6HR MIN TEMP:  45; 6HR MAX TEMP:  46; 6HR PCP:  0.09;

N LITTLE ROCK    N/A     44  42  93 E7        30.27F
6HR MIN TEMP:  44; 6HR MAX TEMP:  46;

JACKSONVILLE   LGT RAIN  45  43  94 NE7       30.26F
6HR MIN TEMP:  45; 6HR MAX TEMP:  48; 6HR PCP:  0.08;

SEARCY         LGT RAIN  45  42  89 E6        30.31F
6HR MIN TEMP:  45; 6HR MAX TEMP:  47; 6HR PCP:  0.02;

HOT SPRINGS    LGT RAIN  46  44  93 E10       30.22F FOG
6HR MIN TEMP:  46; 6HR MAX TEMP:  49; 6HR PCP:  0.13;

RUSSELLVILLE   CLOUDY    46  39  76 E6        30.25F
6HR MIN TEMP:  45; 6HR MAX TEMP:  49; 6HR PCP:  0.01;

$$

ARZ036-031900-
EAST ARKANSAS

CITY           SKY/WX    TMP DP  RH WIND       PRES   REMARKS
WEST MEMPHIS   LGT RAIN  48  35  60 SE8       30.30F
6HR MIN TEMP:  46; 6HR MAX TEMP:  48; 6HR PCP: TRACE;

$$

ARZ050-053-066-070-073-031900-
SOUTHWEST ARKANSAS

CITY           SKY/WX    TMP DP  RH WIND       PRES   REMARKS
ARKADELPHIA    RAIN      46  45  96 E8        30.22F
6HR MIN TEMP:  46; 6HR MAX TEMP:  48; 6HR PCP:  0.25;

CAMDEN         HVY RAIN  45  41  87 E8        30.22F
TEXARKANA      HVY RAIN  45  50 100 NE9G17    30.13F
6HR MIN TEMP:  45; 6HR MAX TEMP:  46; 6HR PCP:  0.58;

EL DORADO      RAIN      46  45  96 E13       30.19F FOG
6HR MIN TEMP:  46; 6HR MAX TEMP:  47; 6HR PCP:  0.47;

DE QUEEN       RAIN      46  46 100 E15G21    30.14F FOG
6HR MIN TEMP:  46; 6HR MAX TEMP:  47; 6HR PCP:  0.11;

$$

ARZ056-057-069-031900-
SOUTHEAST ARKANSAS

CITY           SKY/WX    TMP DP  RH WIND       PRES   REMARKS
PINE BLUFF     RAIN      46  44  93 E10       30.27F FOG
6HR MIN TEMP:  46; 6HR MAX TEMP:  48; 6HR PCP:  0.27;

STUTTGART      CLOUDY    46  39  76 E9        30.28F
6HR MIN TEMP:  46; 6HR MAX TEMP:  48; 6HR PCP:  0.11;

MONTICELLO     RAIN      46  44  93 NE9       30.24F FOG
6HR MIN TEMP:  46; 6HR MAX TEMP:  47; 6HR PCP:  0.27;


$$






USA.gov is the U.S. government's official web portal to all federal, state and local government web resources and services.